Location: Bishop�s Knoyle
(51.0728°N, 2.1714°W)
Time: 13:54:47
(UTC+00:00)

NOSS 3-4 (C) - Pass Details

Date: 19 January 2021
Orbit: 878 x 1335 km, 63.4° (Epoch: 16 February)

Event Time Altitude Azimuth Distance (km) Brightness Sun altitude
Rises 18:37:53 0° 260° (W) 3,514 8.2 -18.4°
Reaches altitude 10° 18:40:31 10° 269° (W) 2,610 7.0 -18.8°
Maximum altitude 18:46:07 37° 337° (NNW) 1,457 4.5 -19.7°
Enters shadow 18:50:11 19° 33° (NNE) 2,204 5.0 -20.3°
